User: anonymous   Login
Location: Unspecified
(0.0000°N, 0.0000°E)
Time: 07:24:26
(UTC+00:00)
Language:

M3MSAT - Orbit

View from above orbital plane
View from above orbital plane
View from above satellite
View from above satellite

Ground track
Ground track

The orbit data is extracted from the following two-line orbital elements,

1 41605U 16040G   19082.80188354 +.00000361 +00000-0 +19387-4 0  9996
2 41605 097.3748 145.1087 0011800 350.5619 009.5393 15.20969355152632
Epoch (UTC): 23 March 2019 19:14:42
Eccentricity: 0.0011800
inclination: 97.3748°
perigee height: 495 km
apogee height: 511 km
right ascension of ascending node: 145.1087°
argument of perigee: 350.5619°
revolutions per day: 15.20969355
mean anomaly at epoch: 9.5393°
orbit number at epoch: 15263

The dashed part of the orbit path shows where the satellite is in the earth's shadow,  

DLR